Location: Archemont
(49.1579°N, 1.7598°E)
Time: 01:32:22
(UTC+00:00)

S-56A Canister/Altair - Pass Details

Date: 24 April 2024
Orbit: 638 x 2488 km, 38.9° (Epoch: 21 May)

Event Time Altitude Azimuth Distance (km) Brightness Sun altitude
Rises 16:43:05 0° 239° (WSW) 3,061 11.7 21.0°
Reaches altitude 10° 16:45:27 10° 228° (SW) 2,260 10.9 20.6°
Maximum altitude 16:49:57 30° 167° (SSE) 1,542 9.2 19.9°
Drops below altitude 10° 16:55:55 10° 110° (ESE) 3,037 10.1 18.9°
Sets 16:59:36 0° 101° (E) 4,324 10.8 18.3°
